Time,TemperatureF,DewpointF,PressureIn,WindDirection,WindDirectionDegrees,WindSpeedMPH,WindSpeedGustMPH,Humidity,HourlyPrecipIn,Conditions,Clouds,dailyrainin,SoftwareType,DateUTC
2013-01-12 00:04:00,59.0,55.8,29.92,WSW,257,4.0,7.0,89,0.00,,,0.00,Wunderground v.1.15,2013-01-12 06:04:00,
2013-01-12 00:10:00,59.0,56.1,29.93,SW,231,3.0,4.0,90,0.00,,,0.00,Wunderground v.1.15,2013-01-12 06:10:00,
2013-01-12 00:15:00,59.1,56.2,29.93,SW,214,4.0,6.0,90,0.00,,,0.00,Wunderground v.1.15,2013-01-12 06:15:00,
2013-01-12 00:21:00,59.1,56.5,29.93,SW,224,4.0,6.0,91,0.00,,,0.00,Wunderground v.1.15,2013-01-12 06:21:00,
2013-01-12 00:27:00,59.0,56.4,29.93,SW,224,4.0,6.0,91,0.00,,,0.00,Wunderground v.1.15,2013-01-12 06:27:00,
2013-01-12 00:32:00,58.9,56.3,29.93,WSW,245,3.0,5.0,91,0.00,,,0.00,Wunderground v.1.15,2013-01-12 06:32:00,
2013-01-12 00:38:00,58.9,56.6,29.93,WSW,257,5.0,8.0,92,0.00,,,0.00,Wunderground v.1.15,2013-01-12 06:38:00,
2013-01-12 00:44:00,58.9,56.6,29.93,SW,220,3.0,5.0,92,0.00,,,0.00,Wunderground v.1.15,2013-01-12 06:44:00,
2013-01-12 00:49:00,59.0,56.7,29.93,SW,224,6.0,6.0,92,0.00,,,0.00,Wunderground v.1.15,2013-01-12 06:49:00,
2013-01-12 00:55:00,59.0,56.7,29.93,SW,235,2.0,5.0,92,0.00,,,0.00,Wunderground v.1.15,2013-01-12 06:55:00,
2013-01-12 01:00:00,59.0,57.0,29.93,SW,225,5.0,5.0,93,0.00,,,0.00,Wunderground v.1.15,2013-01-12 07:00:00,
2013-01-12 01:06:00,59.0,57.0,29.93,SW,221,5.0,7.0,93,0.00,,,0.00,Wunderground v.1.15,2013-01-12 07:06:00,
2013-01-12 01:11:00,59.0,57.0,29.93,SW,233,4.0,4.0,93,0.00,,,0.00,Wunderground v.1.15,2013-01-12 07:11:00,
2013-01-12 01:17:00,59.1,57.1,29.93,SW,231,4.0,6.0,93,0.00,,,0.00,Wunderground v.1.15,2013-01-12 07:17:00,
2013-01-12 01:23:00,59.1,57.4,29.94,SW,222,3.0,5.0,94,0.00,,,0.00,Wunderground v.1.15,2013-01-12 07:23:00,
2013-01-12 01:29:00,59.2,57.2,29.93,SW,221,3.0,6.0,93,0.00,,,0.00,Wunderground v.1.15,2013-01-12 07:29:00,
2013-01-12 01:34:00,59.1,57.4,29.94,SW,236,1.0,5.0,94,0.00,,,0.00,Wunderground v.1.15,2013-01-12 07:34:00,
2013-01-12 01:39:00,59.3,57.6,29.93,SSW,212,3.0,9.0,94,0.00,,,0.00,Wunderground v.1.15,2013-01-12 07:39:00,
2013-01-12 01:44:00,59.4,57.7,29.94,SW,226,4.0,4.0,94,0.00,,,0.00,Wunderground v.1.15,2013-01-12 07:44:00,
2013-01-12 01:50:00,59.5,57.8,29.94,SW,231,2.0,4.0,94,0.00,,,0.00,Wunderground v.1.15,2013-01-12 07:50:00,
2013-01-12 01:56:00,59.6,57.9,29.94,SW,233,2.0,6.0,94,0.00,,,0.00,Wunderground v.1.15,2013-01-12 07:56:00,
2013-01-12 02:01:00,59.6,57.9,29.94,SW,218,3.0,3.0,94,0.00,,,0.00,Wunderground v.1.15,2013-01-12 08:01:00,
2013-01-12 02:06:00,59.6,57.9,29.95,West,273,0.0,5.0,94,0.00,,,0.00,Wunderground v.1.15,2013-01-12 08:06:00,
2013-01-12 02:11:00,59.6,57.9,29.95,SW,232,6.0,6.0,94,0.00,,,0.00,Wunderground v.1.15,2013-01-12 08:11:00,
2013-01-12 02:16:00,59.7,58.0,29.95,SW,236,1.0,6.0,94,0.00,,,0.00,Wunderground v.1.15,2013-01-12 08:16:00,
2013-01-12 02:21:00,59.7,58.3,29.95,WSW,248,5.0,5.0,95,0.00,,,0.00,Wunderground v.1.15,2013-01-12 08:21:00,
2013-01-12 02:26:00,60.0,58.3,29.95,WSW,257,3.0,8.0,94,0.00,,,0.00,Wunderground v.1.15,2013-01-12 08:26:00,
2013-01-12 02:31:00,60.1,58.4,29.95,SW,236,2.0,5.0,94,0.00,,,0.00,Wunderground v.1.15,2013-01-12 08:31:00,
2013-01-12 02:36:00,60.2,58.5,29.95,West,278,3.0,5.0,94,0.00,,,0.00,Wunderground v.1.15,2013-01-12 08:36:00,
2013-01-12 02:41:00,60.3,58.6,29.95,SW,230,1.0,3.0,94,0.00,,,0.00,Wunderground v.1.15,2013-01-12 08:41:00,
2013-01-12 02:46:00,60.4,59.0,29.95,SSW,212,4.0,5.0,95,0.00,,,0.00,Wunderground v.1.15,2013-01-12 08:46:00,
2013-01-12 02:51:00,60.5,58.8,29.95,SW,222,6.0,6.0,94,0.00,,,0.00,Wunderground v.1.15,2013-01-12 08:51:00,
2013-01-12 02:56:00,60.7,59.3,29.95,WSW,248,3.0,7.0,95,0.00,,,0.00,Wunderground v.1.15,2013-01-12 08:56:00,
2013-01-12 03:01:00,60.9,59.2,29.94,SW,233,4.0,11.0,94,0.00,,,0.00,Wunderground v.1.15,2013-01-12 09:01:00,
2013-01-12 03:06:00,61.0,59.3,29.94,West,274,4.0,11.0,94,0.00,,,0.00,Wunderground v.1.15,2013-01-12 09:06:00,
2013-01-12 03:11:00,61.1,59.4,29.94,WSW,255,2.0,8.0,94,0.00,,,0.00,Wunderground v.1.15,2013-01-12 09:11:00,
2013-01-12 03:16:00,61.3,59.6,29.94,West,259,5.0,8.0,94,0.00,,,0.00,Wunderground v.1.15,2013-01-12 09:16:00,
2013-01-12 03:21:00,61.4,59.7,29.94,West,263,6.0,7.0,94,0.00,,,0.00,Wunderground v.1.15,2013-01-12 09:21:00,
2013-01-12 03:26:00,61.6,59.9,29.94,West,271,4.0,13.0,94,0.00,,,0.00,Wunderground v.1.15,2013-01-12 09:26:00,
2013-01-12 03:31:00,61.7,60.0,29.94,WSW,243,9.0,12.0,94,0.00,,,0.00,Wunderground v.1.15,2013-01-12 09:31:00,
2013-01-12 03:36:00,61.8,59.8,29.94,WSW,250,2.0,12.0,93,0.00,,,0.00,Wunderground v.1.15,2013-01-12 09:36:00,
2013-01-12 03:41:00,61.8,59.8,29.94,SW,228,3.0,8.0,93,0.00,,,0.00,Wunderground v.1.15,2013-01-12 09:41:00,
2013-01-12 03:46:00,61.9,59.9,29.94,West,261,5.0,8.0,93,0.00,,,0.00,Wunderground v.1.15,2013-01-12 09:46:00,
2013-01-12 03:51:00,62.0,60.3,29.94,WSW,245,5.0,6.0,94,0.00,,,0.00,Wunderground v.1.15,2013-01-12 09:51:00,
2013-01-12 03:56:00,62.2,60.2,29.93,WSW,238,4.0,12.0,93,0.00,,,0.00,Wunderground v.1.15,2013-01-12 09:56:00,
2013-01-12 04:01:00,62.3,60.2,29.94,WSW,246,2.0,5.0,93,0.00,,,0.00,Wunderground v.1.15,2013-01-12 10:01:00,
2013-01-12 04:06:00,62.3,60.2,29.93,SW,233,4.0,7.0,93,0.00,,,0.00,Wunderground v.1.15,2013-01-12 10:06:00,
2013-01-12 04:11:00,62.5,60.4,29.94,West,270,2.0,4.0,93,0.00,,,0.00,Wunderground v.1.15,2013-01-12 10:11:00,
2013-01-12 04:16:00,62.6,60.5,29.93,SW,235,3.0,10.0,93,0.00,,,0.00,Wunderground v.1.15,2013-01-12 10:16:00,
2013-01-12 04:21:00,62.8,60.7,29.93,SW,218,4.0,5.0,93,0.00,,,0.00,Wunderground v.1.15,2013-01-12 10:21:00,
2013-01-12 04:26:00,62.8,60.7,29.94,West,278,2.0,8.0,93,0.00,,,0.00,Wunderground v.1.15,2013-01-12 10:26:00,
2013-01-12 04:31:00,62.8,60.7,29.94,WSW,241,4.0,6.0,93,0.00,,,0.00,Wunderground v.1.15,2013-01-12 10:31:00,
2013-01-12 04:36:00,62.8,60.7,29.94,West,277,4.0,6.0,93,0.00,,,0.00,Wunderground v.1.15,2013-01-12 10:36:00,
2013-01-12 04:41:00,62.8,60.7,29.94,West,273,1.0,4.0,93,0.00,,,0.00,Wunderground v.1.15,2013-01-12 10:41:00,
2013-01-12 04:46:00,62.8,60.7,29.94,WSW,253,0.0,4.0,93,0.00,,,0.00,Wunderground v.1.15,2013-01-12 10:46:00,
2013-01-12 04:51:00,62.8,60.7,29.94,West,265,2.0,2.0,93,0.00,,,0.00,Wunderground v.1.15,2013-01-12 10:51:00,
2013-01-12 04:56:00,62.9,60.8,29.94,SW,214,4.0,4.0,93,0.00,,,0.00,Wunderground v.1.15,2013-01-12 10:56:00,
2013-01-12 05:01:00,62.9,60.8,29.94,West,260,0.0,3.0,93,0.00,,,0.00,Wunderground v.1.15,2013-01-12 11:01:00,
2013-01-12 05:06:00,62.9,60.8,29.94,West,264,1.0,4.0,93,0.00,,,0.00,Wunderground v.1.15,2013-01-12 11:06:00,
2013-01-12 05:11:00,62.9,60.8,29.94,West,266,0.0,1.0,93,0.00,,,0.00,Wunderground v.1.15,2013-01-12 11:11:00,
2013-01-12 05:16:00,62.9,60.8,29.94,West,274,1.0,3.0,93,0.00,,,0.00,Wunderground v.1.15,2013-01-12 11:16:00,
2013-01-12 05:21:00,62.9,60.8,29.94,WSW,255,1.0,2.0,93,0.00,,,0.00,Wunderground v.1.15,2013-01-12 11:21:00,
2013-01-12 05:26:00,62.8,60.7,29.94,WSW,245,1.0,3.0,93,0.00,,,0.00,Wunderground v.1.15,2013-01-12 11:26:00,
2013-01-12 05:31:00,62.8,60.7,29.95,West,265,0.0,1.0,93,0.00,,,0.00,Wunderground v.1.15,2013-01-12 11:31:00,
2013-01-12 05:36:00,62.8,60.7,29.95,WSW,246,0.0,3.0,93,0.00,,,0.00,Wunderground v.1.15,2013-01-12 11:36:00,
2013-01-12 05:41:00,62.7,60.6,29.95,SSW,207,0.0,2.0,93,0.00,,,0.00,Wunderground v.1.15,2013-01-12 11:41:00,
2013-01-12 05:46:00,62.7,60.9,29.95,WSW,255,0.0,2.0,94,0.00,,,0.00,Wunderground v.1.15,2013-01-12 11:46:00,
2013-01-12 05:51:00,62.7,60.9,29.95,West,260,0.0,1.0,94,0.00,,,0.00,Wunderground v.1.15,2013-01-12 11:51:00,
2013-01-12 05:56:00,62.6,60.8,29.95,SW,231,0.0,2.0,94,0.00,,,0.00,Wunderground v.1.15,2013-01-12 11:56:00,
2013-01-12 06:01:00,62.6,60.8,29.95,WSW,237,1.0,1.0,94,0.00,,,0.00,Wunderground v.1.15,2013-01-12 12:01:00,
2013-01-12 06:06:00,62.7,60.9,29.95,SW,232,1.0,2.0,94,0.00,,,0.00,Wunderground v.1.15,2013-01-12 12:06:00,
2013-01-12 06:11:00,62.7,60.9,29.95,WSW,245,1.0,2.0,94,0.00,,,0.00,Wunderground v.1.15,2013-01-12 12:11:00,
2013-01-12 06:16:00,62.7,60.9,29.95,SW,226,1.0,2.0,94,0.00,,,0.00,Wunderground v.1.15,2013-01-12 12:16:00,
2013-01-12 06:21:00,62.7,60.9,29.95,SW,229,1.0,3.0,94,0.00,,,0.00,Wunderground v.1.15,2013-01-12 12:21:00,
2013-01-12 06:26:00,62.8,61.0,29.95,SW,233,2.0,3.0,94,0.00,,,0.00,Wunderground v.1.15,2013-01-12 12:26:00,
2013-01-12 06:31:00,62.8,61.0,29.95,SSW,207,2.0,2.0,94,0.00,,,0.00,Wunderground v.1.15,2013-01-12 12:31:00,
2013-01-12 06:36:00,62.7,60.9,29.95,SW,233,1.0,3.0,94,0.00,,,0.00,Wunderground v.1.15,2013-01-12 12:36:00,
2013-01-12 06:41:00,62.7,60.9,29.95,SW,231,1.0,2.0,94,0.00,,,0.00,Wunderground v.1.15,2013-01-12 12:41:00,
2013-01-12 06:46:00,62.7,61.2,29.96,WSW,241,1.0,3.0,95,0.00,,,0.00,Wunderground v.1.15,2013-01-12 12:46:00,
2013-01-12 06:51:00,62.6,61.1,29.96,SE,141,1.0,2.0,95,0.00,,,0.00,Wunderground v.1.15,2013-01-12 12:51:00,
2013-01-12 06:56:00,62.6,61.1,29.97,SW,226,3.0,3.0,95,0.00,,,0.00,Wunderground v.1.15,2013-01-12 12:56:00,
2013-01-12 07:01:00,62.6,61.1,29.97,SW,229,0.0,1.0,95,0.00,,,0.00,Wunderground v.1.15,2013-01-12 13:01:00,
2013-01-12 07:07:00,62.6,61.1,29.97,SSW,204,2.0,2.0,95,0.00,,,0.00,Wunderground v.1.15,2013-01-12 13:07:00,
2013-01-12 07:12:00,62.6,61.1,29.97,SW,236,0.0,2.0,95,0.00,,,0.00,Wunderground v.1.15,2013-01-12 13:12:00,
2013-01-12 07:17:00,62.6,61.1,29.97,WSW,242,1.0,2.0,95,0.00,,,0.00,Wunderground v.1.15,2013-01-12 13:17:00,
2013-01-12 07:22:00,62.6,61.1,29.97,SW,221,1.0,1.0,95,0.00,,,0.00,Wunderground v.1.15,2013-01-12 13:22:00,
2013-01-12 07:27:00,62.5,61.0,29.97,SW,215,0.0,1.0,95,0.00,,,0.00,Wunderground v.1.15,2013-01-12 13:27:00,
2013-01-12 07:32:00,62.6,61.1,29.97,SW,215,1.0,2.0,95,0.00,,,0.00,Wunderground v.1.15,2013-01-12 13:32:00,
2013-01-12 07:37:00,62.6,61.1,29.96,SW,231,0.0,2.0,95,0.00,,,0.00,Wunderground v.1.15,2013-01-12 13:37:00,
2013-01-12 07:42:00,62.6,61.1,29.96,SW,214,1.0,2.0,95,0.00,,,0.00,Wunderground v.1.15,2013-01-12 13:42:00,
2013-01-12 07:47:00,62.6,61.1,29.96,SSW,212,1.0,2.0,95,0.00,,,0.00,Wunderground v.1.15,2013-01-12 13:47:00,
2013-01-12 07:52:00,62.6,61.1,29.96,SSE,162,2.0,3.0,95,0.00,,,0.00,Wunderground v.1.15,2013-01-12 13:52:00,
2013-01-12 07:57:00,62.7,61.2,29.96,South,183,1.0,3.0,95,0.00,,,0.00,Wunderground v.1.15,2013-01-12 13:57:00,
2013-01-12 08:02:00,62.7,61.2,29.96,SW,226,3.0,3.0,95,0.00,,,0.00,Wunderground v.1.15,2013-01-12 14:02:00,
2013-01-12 08:07:00,62.8,61.6,29.96,SW,217,0.0,4.0,96,0.00,,,0.00,Wunderground v.1.15,2013-01-12 14:07:00,
2013-01-12 08:12:00,62.8,61.3,29.96,SSE,155,1.0,1.0,95,0.00,,,0.00,Wunderground v.1.15,2013-01-12 14:12:00,
2013-01-12 08:17:00,62.8,61.6,29.96,SW,221,0.0,1.0,96,0.00,,,0.00,Wunderground v.1.15,2013-01-12 14:17:00,
2013-01-12 08:22:00,62.8,61.6,29.96,SSW,207,0.0,1.0,96,0.00,,,0.00,Wunderground v.1.15,2013-01-12 14:22:00,
2013-01-12 08:27:00,62.9,61.7,29.96,SSW,208,1.0,1.0,96,0.00,,,0.00,Wunderground v.1.15,2013-01-12 14:27:00,
2013-01-12 08:32:00,63.0,61.8,29.96,SSW,211,0.0,1.0,96,0.00,,,0.00,Wunderground v.1.15,2013-01-12 14:32:00,
2013-01-12 08:37:00,63.2,62.0,29.96,SW,214,0.0,2.0,96,0.00,,,0.00,Wunderground v.1.15,2013-01-12 14:37:00,
2013-01-12 08:42:00,63.4,62.2,29.96,SW,217,0.0,1.0,96,0.00,,,0.00,Wunderground v.1.15,2013-01-12 14:42:00,
2013-01-12 08:47:00,63.7,62.2,29.96,SSW,193,3.0,3.0,95,0.00,,,0.00,Wunderground v.1.15,2013-01-12 14:47:00,
2013-01-12 08:52:00,63.8,62.3,29.96,South,169,1.0,3.0,95,0.00,,,0.00,Wunderground v.1.15,2013-01-12 14:52:00,
2013-01-12 08:57:00,64.0,62.5,29.96,SSE,160,0.0,3.0,95,0.00,,,0.00,Wunderground v.1.15,2013-01-12 14:57:00,
2013-01-12 09:02:00,64.1,62.3,29.96,SSW,210,0.0,1.0,94,0.00,,,0.00,Wunderground v.1.15,2013-01-12 15:02:00,
2013-01-12 09:07:00,64.2,62.4,29.96,SSE,148,1.0,2.0,94,0.00,,,0.00,Wunderground v.1.15,2013-01-12 15:07:00,
2013-01-12 09:12:00,64.4,62.6,29.96,SSE,160,0.0,1.0,94,0.00,,,0.00,Wunderground v.1.15,2013-01-12 15:12:00,
2013-01-12 09:17:00,64.5,62.7,29.96,SE,133,0.0,3.0,94,0.00,,,0.00,Wunderground v.1.15,2013-01-12 15:17:00,
2013-01-12 09:22:00,64.6,62.8,29.96,SSE,159,1.0,2.0,94,0.00,,,0.00,Wunderground v.1.15,2013-01-12 15:22:00,
2013-01-12 09:27:00,64.7,62.9,29.96,SSE,150,1.0,2.0,94,0.00,,,0.00,Wunderground v.1.15,2013-01-12 15:27:00,
2013-01-12 09:32:00,64.9,62.8,29.96,SSW,205,0.0,2.0,93,0.00,,,0.00,Wunderground v.1.15,2013-01-12 15:32:00,
2013-01-12 09:37:00,65.0,62.9,29.97,SSE,154,0.0,2.0,93,0.00,,,0.00,Wunderground v.1.15,2013-01-12 15:37:00,
2013-01-12 09:42:00,65.1,63.0,29.97,SSE,164,1.0,3.0,93,0.00,,,0.00,Wunderground v.1.15,2013-01-12 15:42:00,
2013-01-12 09:47:00,65.2,63.1,29.97,SSW,201,2.0,3.0,93,0.00,,,0.00,Wunderground v.1.15,2013-01-12 15:47:00,
2013-01-12 09:52:00,65.2,63.1,29.97,SW,222,1.0,1.0,93,0.00,,,0.00,Wunderground v.1.15,2013-01-12 15:52:00,
2013-01-12 09:57:00,65.2,63.1,29.97,SW,233,0.0,2.0,93,0.00,,,0.00,Wunderground v.1.15,2013-01-12 15:57:00,
2013-01-12 10:02:00,65.2,63.1,29.97,ESE,117,2.0,2.0,93,0.00,,,0.00,Wunderground v.1.15,2013-01-12 16:02:00,
2013-01-12 10:07:00,65.1,63.0,29.96,SSE,150,2.0,3.0,93,0.00,,,0.00,Wunderground v.1.15,2013-01-12 16:07:00,
2013-01-12 10:12:00,65.1,63.0,29.96,ESE,116,0.0,2.0,93,0.00,,,0.00,Wunderground v.1.15,2013-01-12 16:12:00,
2013-01-12 10:17:00,65.0,62.9,29.96,SSE,153,2.0,2.0,93,0.00,,,0.00,Wunderground v.1.15,2013-01-12 16:17:00,
2013-01-12 10:22:00,65.0,62.9,29.95,SE,145,1.0,2.0,93,0.00,,,0.00,Wunderground v.1.15,2013-01-12 16:22:00,
2013-01-12 10:27:00,65.1,63.0,29.95,SSE,154,0.0,3.0,93,0.00,,,0.00,Wunderground v.1.15,2013-01-12 16:27:00,
2013-01-12 10:32:00,65.2,63.1,29.95,SE,128,2.0,2.0,93,0.00,,,0.00,Wunderground v.1.15,2013-01-12 16:32:00,
2013-01-12 10:37:00,65.4,63.3,29.95,SSW,195,1.0,2.0,93,0.00,,,0.00,Wunderground v.1.15,2013-01-12 16:37:00,
2013-01-12 10:42:00,65.7,63.6,29.94,SSE,157,2.0,2.0,93,0.00,,,0.00,Wunderground v.1.15,2013-01-12 16:42:00,
2013-01-12 10:47:00,66.0,63.9,29.94,SSE,153,4.0,5.0,93,0.00,,,0.00,Wunderground v.1.15,2013-01-12 16:47:00,
2013-01-12 10:52:00,66.2,64.1,29.94,SSE,158,2.0,5.0,93,0.00,,,0.00,Wunderground v.1.15,2013-01-12 16:52:00,
2013-01-12 10:57:00,66.4,64.0,29.94,SSE,157,4.0,5.0,92,0.00,,,0.00,Wunderground v.1.15,2013-01-12 16:57:00,
2013-01-12 11:02:00,66.5,64.1,29.93,SE,146,2.0,5.0,92,0.00,,,0.00,Wunderground v.1.15,2013-01-12 17:02:00,
2013-01-12 11:07:00,66.6,64.2,29.93,SE,145,1.0,5.0,92,0.00,,,0.00,Wunderground v.1.15,2013-01-12 17:07:00,
2013-01-12 11:12:00,66.8,64.4,29.93,SSE,153,2.0,4.0,92,0.00,,,0.00,Wunderground v.1.15,2013-01-12 17:12:00,
2013-01-12 11:17:00,66.9,64.2,29.93,SSE,152,1.0,5.0,91,0.00,,,0.00,Wunderground v.1.15,2013-01-12 17:17:00,
2013-01-12 11:22:00,67.0,64.3,29.93,SSE,155,0.0,2.0,91,0.00,,,0.00,Wunderground v.1.15,2013-01-12 17:22:00,
2013-01-12 11:27:00,67.1,64.4,29.92,SSE,158,3.0,4.0,91,0.00,,,0.00,Wunderground v.1.15,2013-01-12 17:27:00,
2013-01-12 11:32:00,67.2,64.5,29.92,SSE,164,2.0,2.0,91,0.00,,,0.00,Wunderground v.1.15,2013-01-12 17:32:00,
2013-01-12 11:37:00,67.3,64.6,29.92,SSE,155,1.0,5.0,91,0.00,,,0.00,Wunderground v.1.15,2013-01-12 17:37:00,
2013-01-12 11:42:00,67.3,64.6,29.91,SSE,166,1.0,2.0,91,0.00,,,0.00,Wunderground v.1.15,2013-01-12 17:42:00,
2013-01-12 11:47:00,67.3,64.6,29.91,SSE,154,2.0,3.0,91,0.00,,,0.00,Wunderground v.1.15,2013-01-12 17:47:00,
2013-01-12 11:52:00,67.2,64.5,29.91,SSE,148,2.0,2.0,91,0.00,,,0.00,Wunderground v.1.15,2013-01-12 17:52:00,
2013-01-12 11:57:00,67.2,64.5,29.90,SE,143,0.0,3.0,91,0.00,,,0.00,Wunderground v.1.15,2013-01-12 17:57:00,
2013-01-12 12:02:00,67.3,64.6,29.90,SSE,166,3.0,3.0,91,0.00,,,0.00,Wunderground v.1.15,2013-01-12 18:02:00,
2013-01-12 12:07:00,67.3,64.6,29.89,SSE,160,3.0,4.0,91,0.00,,,0.00,Wunderground v.1.15,2013-01-12 18:07:00,
2013-01-12 12:12:00,67.5,64.8,29.89,SSE,148,4.0,5.0,91,0.00,,,0.00,Wunderground v.1.15,2013-01-12 18:12:00,
2013-01-12 12:17:00,67.6,64.9,29.89,South,169,0.0,5.0,91,0.00,,,0.00,Wunderground v.1.15,2013-01-12 18:17:00,
2013-01-12 12:22:00,67.7,65.0,29.89,SSW,203,2.0,4.0,91,0.00,,,0.00,Wunderground v.1.15,2013-01-12 18:22:00,
2013-01-12 12:27:00,67.7,65.0,29.88,SSE,155,1.0,4.0,91,0.00,,,0.00,Wunderground v.1.15,2013-01-12 18:27:00,
2013-01-12 12:32:00,67.7,65.0,29.88,SSE,153,1.0,4.0,91,0.00,,,0.00,Wunderground v.1.15,2013-01-12 18:32:00,
2013-01-12 12:37:00,67.7,65.0,29.88,SSE,148,1.0,4.0,91,0.00,,,0.00,Wunderground v.1.15,2013-01-12 18:37:00,
2013-01-12 12:42:00,67.7,65.0,29.87,SSE,149,3.0,5.0,91,0.00,,,0.00,Wunderground v.1.15,2013-01-12 18:42:00,
2013-01-12 12:47:00,67.6,64.9,29.87,ESE,113,0.0,5.0,91,0.00,,,0.00,Wunderground v.1.15,2013-01-12 18:47:00,
2013-01-12 12:52:00,67.6,64.9,29.87,SSE,160,1.0,4.0,91,0.00,,,0.00,Wunderground v.1.15,2013-01-12 18:52:00,
2013-01-12 12:57:00,67.6,64.9,29.86,SE,129,3.0,4.0,91,0.00,,,0.00,Wunderground v.1.15,2013-01-12 18:57:00,
2013-01-12 13:02:00,67.5,65.1,29.85,SSE,151,3.0,4.0,92,0.00,,,0.00,Wunderground v.1.15,2013-01-12 19:02:00,
2013-01-12 13:07:00,67.5,65.1,29.85,SSE,155,1.0,4.0,92,0.00,,,0.00,Wunderground v.1.15,2013-01-12 19:07:00,
2013-01-12 13:12:00,67.4,65.0,29.85,SSE,148,2.0,4.0,92,0.00,,,0.00,Wunderground v.1.15,2013-01-12 19:12:00,
2013-01-12 13:17:00,67.4,65.0,29.84,SE,136,1.0,5.0,92,0.00,,,0.00,Wunderground v.1.15,2013-01-12 19:17:00,
2013-01-12 13:22:00,67.3,64.9,29.84,SE,130,0.0,3.0,92,0.00,,,0.00,Wunderground v.1.15,2013-01-12 19:22:00,
2013-01-12 13:27:00,67.3,64.9,29.83,East,89,2.0,5.0,92,0.00,,,0.00,Wunderground v.1.15,2013-01-12 19:27:00,
2013-01-12 13:32:00,67.3,64.9,29.82,SE,138,3.0,6.0,92,0.00,,,0.00,Wunderground v.1.15,2013-01-12 19:32:00,
2013-01-12 13:37:00,67.2,64.8,29.82,SE,136,1.0,6.0,92,0.00,,,0.00,Wunderground v.1.15,2013-01-12 19:37:00,
2013-01-12 13:42:00,67.3,64.9,29.81,SE,141,4.0,5.0,92,0.00,,,0.00,Wunderground v.1.15,2013-01-12 19:42:00,
2013-01-12 13:47:00,67.3,64.9,29.80,ESE,103,2.0,5.0,92,0.00,,,0.00,Wunderground v.1.15,2013-01-12 19:47:00,
2013-01-12 13:52:00,67.2,65.1,29.82,SSE,162,3.0,6.0,93,1.16,,,0.03,Wunderground v.1.15,2013-01-12 19:52:00,
2013-01-12 13:57:00,67.1,65.3,29.82,SSE,160,6.0,8.0,94,0.62,,,0.14,Wunderground v.1.15,2013-01-12 19:57:00,
2013-01-12 14:02:00,67.0,65.2,29.80,SSE,168,5.0,10.0,94,0.26,,,0.20,Wunderground v.1.15,2013-01-12 20:02:00,
2013-01-12 14:07:00,66.9,65.1,29.78,NE,56,9.0,11.0,94,0.12,,,0.21,Wunderground v.1.15,2013-01-12 20:07:00,
2013-01-12 14:13:00,67.0,65.2,29.79,SSE,165,6.0,8.0,94,0.10,,,0.21,Wunderground v.1.15,2013-01-12 20:13:00,
2013-01-12 14:18:00,67.1,65.3,29.79,SSE,160,5.0,11.0,94,0.05,,,0.21,Wunderground v.1.15,2013-01-12 20:18:00,
2013-01-12 14:23:00,67.1,65.3,29.78,South,181,6.0,13.0,94,0.04,,,0.21,Wunderground v.1.15,2013-01-12 20:23:00,
2013-01-12 14:28:00,67.2,65.1,29.78,SSE,165,11.0,14.0,93,0.00,,,0.21,Wunderground v.1.15,2013-01-12 20:28:00,
2013-01-12 14:33:00,67.4,65.3,29.78,SW,225,9.0,18.0,93,0.00,,,0.22,Wunderground v.1.15,2013-01-12 20:33:00,
2013-01-12 14:38:00,67.5,65.1,29.79,SE,133,21.0,21.0,92,0.00,,,0.22,Wunderground v.1.15,2013-01-12 20:38:00,
2013-01-12 14:43:00,67.7,65.0,29.80,SSE,163,9.0,15.0,91,0.00,,,0.22,Wunderground v.1.15,2013-01-12 20:43:00,
2013-01-12 14:48:00,67.8,65.1,29.81,WSW,246,10.0,19.0,91,0.00,,,0.22,Wunderground v.1.15,2013-01-12 20:48:00,
2013-01-12 14:53:00,68.0,65.0,29.82,SW,225,4.0,16.0,90,0.00,,,0.22,Wunderground v.1.15,2013-01-12 20:53:00,
2013-01-12 14:58:00,68.0,65.0,29.82,WSW,239,11.0,16.0,90,0.00,,,0.22,Wunderground v.1.15,2013-01-12 20:58:00,
2013-01-12 15:03:00,68.0,65.0,29.82,West,259,4.0,10.0,90,0.00,,,0.22,Wunderground v.1.15,2013-01-12 21:03:00,
2013-01-12 15:08:00,67.7,65.0,29.81,SW,236,3.0,10.0,91,1.23,,,0.26,Wunderground v.1.15,2013-01-12 21:08:00,
2013-01-12 15:13:00,67.4,65.0,29.81,South,170,2.0,11.0,92,0.19,,,0.27,Wunderground v.1.15,2013-01-12 21:13:00,
2013-01-12 15:18:00,67.2,64.8,29.81,SSW,194,2.0,11.0,92,0.08,,,0.27,Wunderground v.1.15,2013-01-12 21:18:00,
2013-01-12 15:23:00,67.1,64.7,29.81,SW,229,5.0,8.0,92,0.05,,,0.27,Wunderground v.1.15,2013-01-12 21:23:00,
2013-01-12 15:28:00,67.1,64.7,29.81,West,260,8.0,9.0,92,0.04,,,0.28,Wunderground v.1.15,2013-01-12 21:28:00,
2013-01-12 15:33:00,67.1,64.7,29.81,SW,214,4.0,6.0,92,0.04,,,0.28,Wunderground v.1.15,2013-01-12 21:33:00,
2013-01-12 15:38:00,67.1,64.7,29.81,SW,218,1.0,9.0,92,0.04,,,0.28,Wunderground v.1.15,2013-01-12 21:38:00,
2013-01-12 15:43:00,67.1,64.7,29.81,SSW,205,5.0,7.0,92,0.00,,,0.28,Wunderground v.1.15,2013-01-12 21:43:00,
2013-01-12 15:48:00,67.1,64.7,29.81,South,188,5.0,8.0,92,0.00,,,0.28,Wunderground v.1.15,2013-01-12 21:48:00,
2013-01-12 15:53:00,67.1,64.7,29.81,SSW,203,8.0,8.0,92,0.00,,,0.28,Wunderground v.1.15,2013-01-12 21:53:00,
2013-01-12 15:58:00,67.2,64.8,29.80,SE,133,4.0,9.0,92,0.00,,,0.28,Wunderground v.1.15,2013-01-12 21:58:00,
2013-01-12 16:03:00,67.2,64.8,29.81,SW,218,2.0,6.0,92,0.00,,,0.28,Wunderground v.1.15,2013-01-12 22:03:00,
2013-01-12 16:08:00,67.2,64.8,29.81,SW,231,4.0,8.0,92,0.00,,,0.28,Wunderground v.1.15,2013-01-12 22:08:00,
2013-01-12 16:13:00,67.4,64.7,29.80,SW,229,4.0,8.0,91,0.00,,,0.28,Wunderground v.1.15,2013-01-12 22:13:00,
2013-01-12 16:18:00,67.4,64.7,29.80,South,191,5.0,8.0,91,0.00,,,0.28,Wunderground v.1.15,2013-01-12 22:18:00,
2013-01-12 16:24:00,67.5,64.8,29.79,WSW,250,2.0,9.0,91,0.00,,,0.28,Wunderground v.1.15,2013-01-12 22:24:00,
2013-01-12 16:29:00,67.5,64.8,29.80,SSW,195,2.0,9.0,91,0.00,,,0.28,Wunderground v.1.15,2013-01-12 22:29:00,
2013-01-12 16:34:00,67.5,64.8,29.80,SSW,195,4.0,7.0,91,0.00,,,0.28,Wunderground v.1.15,2013-01-12 22:34:00,
2013-01-12 16:39:00,67.5,64.8,29.80,SSW,200,3.0,9.0,91,0.00,,,0.28,Wunderground v.1.15,2013-01-12 22:39:00,
2013-01-12 16:44:00,67.6,64.9,29.80,SW,219,3.0,8.0,91,0.00,,,0.28,Wunderground v.1.15,2013-01-12 22:44:00,
2013-01-12 16:49:00,67.6,64.9,29.80,WSW,245,2.0,9.0,91,0.00,,,0.28,Wunderground v.1.15,2013-01-12 22:49:00,
2013-01-12 16:54:00,67.7,64.7,29.80,WSW,248,7.0,8.0,90,0.00,,,0.28,Wunderground v.1.15,2013-01-12 22:54:00,
2013-01-12 16:59:00,67.8,64.8,29.80,SSW,194,6.0,10.0,90,0.00,,,0.28,Wunderground v.1.15,2013-01-12 22:59:00,
2013-01-12 17:04:00,67.8,64.8,29.79,SSW,198,3.0,5.0,90,0.00,,,0.28,Wunderground v.1.15,2013-01-12 23:04:00,
2013-01-12 17:09:00,67.8,64.8,29.79,WSW,238,5.0,7.0,90,0.00,,,0.28,Wunderground v.1.15,2013-01-12 23:09:00,
2013-01-12 17:14:00,67.8,64.8,29.79,SW,217,2.0,6.0,90,0.00,,,0.28,Wunderground v.1.15,2013-01-12 23:14:00,
2013-01-12 17:19:00,67.8,64.8,29.79,SW,214,3.0,9.0,90,0.00,,,0.28,Wunderground v.1.15,2013-01-12 23:19:00,
2013-01-12 17:24:00,67.8,64.8,29.78,SSW,201,1.0,6.0,90,0.00,,,0.28,Wunderground v.1.15,2013-01-12 23:24:00,
2013-01-12 17:29:00,67.9,64.9,29.79,SW,225,4.0,9.0,90,0.00,,,0.28,Wunderground v.1.15,2013-01-12 23:29:00,
2013-01-12 17:34:00,67.9,64.9,29.78,South,174,7.0,10.0,90,0.00,,,0.28,Wunderground v.1.15,2013-01-12 23:34:00,
2013-01-12 17:39:00,68.0,65.0,29.79,SSE,168,1.0,10.0,90,0.00,,,0.28,Wunderground v.1.15,2013-01-12 23:39:00,
2013-01-12 17:44:00,68.0,65.0,29.78,SW,218,2.0,5.0,90,0.00,,,0.28,Wunderground v.1.15,2013-01-12 23:44:00,
2013-01-12 17:49:00,68.0,65.0,29.78,SW,232,6.0,7.0,90,0.00,,,0.28,Wunderground v.1.15,2013-01-12 23:49:00,
2013-01-12 17:54:00,68.0,65.0,29.77,South,186,7.0,9.0,90,0.00,,,0.28,Wunderground v.1.15,2013-01-12 23:54:00,
2013-01-12 17:59:00,68.0,65.0,29.77,South,191,6.0,10.0,90,0.00,,,0.28,Wunderground v.1.15,2013-01-12 23:59:00,
2013-01-12 18:04:00,68.0,65.0,29.77,SW,217,5.0,9.0,90,0.00,,,0.28,Wunderground v.1.15,2013-01-13 00:04:00,
2013-01-12 18:09:00,68.1,64.7,29.77,South,190,6.0,12.0,89,0.00,,,0.28,Wunderground v.1.15,2013-01-13 00:09:00,
2013-01-12 18:14:00,68.2,64.8,29.77,SW,226,8.0,13.0,89,0.00,,,0.28,Wunderground v.1.15,2013-01-13 00:14:00,
2013-01-12 18:19:00,68.2,64.8,29.78,SW,228,7.0,13.0,89,0.00,,,0.28,Wunderground v.1.15,2013-01-13 00:19:00,
2013-01-12 18:24:00,68.3,64.9,29.78,SW,231,2.0,10.0,89,0.00,,,0.28,Wunderground v.1.15,2013-01-13 00:24:00,
2013-01-12 18:29:00,68.3,64.9,29.77,SSW,194,6.0,6.0,89,0.00,,,0.28,Wunderground v.1.15,2013-01-13 00:29:00,
2013-01-12 18:34:00,68.3,64.9,29.78,SW,228,6.0,12.0,89,0.00,,,0.28,Wunderground v.1.15,2013-01-13 00:34:00,
2013-01-12 18:40:00,68.3,64.9,29.78,SW,217,3.0,5.0,89,0.00,,,0.28,Wunderground v.1.15,2013-01-13 00:40:00,
2013-01-12 18:45:00,68.4,65.0,29.78,SSE,158,5.0,12.0,89,0.00,,,0.28,Wunderground v.1.15,2013-01-13 00:45:00,
2013-01-12 18:50:00,68.6,65.2,29.78,WSW,242,4.0,6.0,89,0.00,,,0.28,Wunderground v.1.15,2013-01-13 00:50:00,
2013-01-12 18:55:00,68.6,64.9,29.78,SW,236,5.0,11.0,88,0.00,,,0.28,Wunderground v.1.15,2013-01-13 00:55:00,
2013-01-12 19:00:00,68.7,65.0,29.78,SW,236,8.0,14.0,88,0.00,,,0.28,Wunderground v.1.15,2013-01-13 01:00:00,
2013-01-12 19:05:00,68.9,65.2,29.77,SSE,165,5.0,14.0,88,0.00,,,0.28,Wunderground v.1.15,2013-01-13 01:05:00,
2013-01-12 19:10:00,69.0,65.0,29.78,South,180,9.0,14.0,87,0.00,,,0.28,Wunderground v.1.15,2013-01-13 01:10:00,
2013-01-12 19:15:00,69.1,65.1,29.77,SSE,157,7.0,14.0,87,0.00,,,0.28,Wunderground v.1.15,2013-01-13 01:15:00,
2013-01-12 19:20:00,69.1,65.1,29.77,SW,217,9.0,9.0,87,0.00,,,0.28,Wunderground v.1.15,2013-01-13 01:20:00,
2013-01-12 19:25:00,69.1,65.1,29.78,SW,226,6.0,12.0,87,0.00,,,0.28,Wunderground v.1.15,2013-01-13 01:25:00,
2013-01-12 19:30:00,69.1,65.1,29.77,South,176,9.0,11.0,87,0.00,,,0.28,Wunderground v.1.15,2013-01-13 01:30:00,
2013-01-12 19:35:00,69.1,64.7,29.77,SW,218,6.0,12.0,86,0.00,,,0.28,Wunderground v.1.15,2013-01-13 01:35:00,
2013-01-12 19:40:00,69.0,64.6,29.76,SSE,158,7.0,8.0,86,0.00,,,0.28,Wunderground v.1.15,2013-01-13 01:40:00,
2013-01-12 19:45:00,68.9,64.5,29.76,SSW,197,7.0,12.0,86,0.00,,,0.28,Wunderground v.1.15,2013-01-13 01:45:00,
2013-01-12 19:50:00,68.8,64.4,29.76,SW,214,5.0,7.0,86,0.00,,,0.28,Wunderground v.1.15,2013-01-13 01:50:00,
2013-01-12 19:55:00,68.9,64.5,29.75,WSW,243,7.0,16.0,86,0.00,,,0.28,Wunderground v.1.15,2013-01-13 01:55:00,
2013-01-12 20:00:00,68.8,64.4,29.75,South,191,4.0,7.0,86,0.00,,,0.28,Wunderground v.1.15,2013-01-13 02:00:00,
2013-01-12 20:05:00,68.7,64.3,29.75,SSW,211,8.0,12.0,86,0.00,,,0.28,Wunderground v.1.15,2013-01-13 02:05:00,
2013-01-12 20:10:00,68.7,64.3,29.75,SW,226,8.0,13.0,86,0.00,,,0.28,Wunderground v.1.15,2013-01-13 02:10:00,
2013-01-12 20:15:00,68.7,64.3,29.74,South,170,4.0,16.0,86,0.00,,,0.28,Wunderground v.1.15,2013-01-13 02:15:00,
2013-01-12 20:20:00,68.6,64.6,29.74,South,173,8.0,11.0,87,0.00,,,0.28,Wunderground v.1.15,2013-01-13 02:20:00,
2013-01-12 20:25:00,68.7,64.3,29.74,SSW,205,5.0,13.0,86,0.00,,,0.28,Wunderground v.1.15,2013-01-13 02:25:00,
2013-01-12 20:30:00,68.7,64.3,29.73,SW,221,10.0,10.0,86,0.00,,,0.28,Wunderground v.1.15,2013-01-13 02:30:00,
2013-01-12 20:35:00,68.7,64.3,29.73,South,187,10.0,14.0,86,0.00,,,0.28,Wunderground v.1.15,2013-01-13 02:35:00,
2013-01-12 20:40:00,68.7,64.3,29.73,South,179,5.0,11.0,86,0.00,,,0.28,Wunderground v.1.15,2013-01-13 02:40:00,
2013-01-12 20:45:00,68.8,64.4,29.73,South,179,13.0,17.0,86,0.00,,,0.28,Wunderground v.1.15,2013-01-13 02:45:00,
2013-01-12 20:50:00,68.8,64.4,29.73,SW,226,14.0,14.0,86,0.00,,,0.28,Wunderground v.1.15,2013-01-13 02:50:00,
2013-01-12 20:55:00,68.7,64.3,29.72,SW,231,9.0,14.0,86,0.00,,,0.28,Wunderground v.1.15,2013-01-13 02:55:00,
2013-01-12 21:00:00,68.7,64.3,29.73,SSW,198,11.0,11.0,86,0.00,,,0.28,Wunderground v.1.15,2013-01-13 03:00:00,
2013-01-12 21:05:00,68.7,64.3,29.73,South,184,3.0,11.0,86,0.00,,,0.28,Wunderground v.1.15,2013-01-13 03:05:00,
2013-01-12 21:10:00,68.9,64.5,29.73,SW,226,6.0,13.0,86,0.00,,,0.28,Wunderground v.1.15,2013-01-13 03:10:00,
2013-01-12 21:15:00,69.0,64.6,29.72,SW,222,16.0,16.0,86,0.00,,,0.28,Wunderground v.1.15,2013-01-13 03:15:00,
2013-01-12 21:20:00,69.2,64.5,29.72,SSW,198,10.0,15.0,85,0.00,,,0.28,Wunderground v.1.15,2013-01-13 03:20:00,
2013-01-12 21:25:00,69.4,64.7,29.72,SSW,205,9.0,17.0,85,0.00,,,0.28,Wunderground v.1.15,2013-01-13 03:25:00,
2013-01-12 21:30:00,69.4,64.7,29.72,WSW,238,14.0,14.0,85,0.00,,,0.28,Wunderground v.1.15,2013-01-13 03:30:00,
2013-01-12 21:35:00,69.6,64.9,29.72,South,184,13.0,19.0,85,0.00,,,0.28,Wunderground v.1.15,2013-01-13 03:35:00,
2013-01-12 21:40:00,69.5,64.8,29.72,SSW,198,5.0,9.0,85,0.00,,,0.28,Wunderground v.1.15,2013-01-13 03:40:00,
2013-01-12 21:45:00,69.6,64.9,29.71,SSW,194,8.0,14.0,85,0.00,,,0.28,Wunderground v.1.15,2013-01-13 03:45:00,
2013-01-12 21:50:00,69.5,64.8,29.71,South,191,6.0,15.0,85,0.00,,,0.28,Wunderground v.1.15,2013-01-13 03:50:00,
2013-01-12 21:55:00,69.5,64.8,29.70,South,180,6.0,20.0,85,0.00,,,0.28,Wunderground v.1.15,2013-01-13 03:55:00,
2013-01-12 22:00:00,69.6,64.9,29.70,South,176,6.0,8.0,85,0.00,,,0.28,Wunderground v.1.15,2013-01-13 04:00:00,
2013-01-12 22:05:00,69.6,64.9,29.70,SSW,193,6.0,17.0,85,0.00,,,0.28,Wunderground v.1.15,2013-01-13 04:05:00,
2013-01-12 22:10:00,69.6,64.9,29.69,SSW,205,8.0,12.0,85,0.00,,,0.28,Wunderground v.1.15,2013-01-13 04:10:00,
2013-01-12 22:16:00,69.8,65.1,29.70,SW,236,11.0,21.0,85,0.00,,,0.28,Wunderground v.1.15,2013-01-13 04:16:00,
2013-01-12 22:20:00,69.8,65.1,29.69,WSW,255,14.0,17.0,85,0.00,,,0.28,Wunderground v.1.15,2013-01-13 04:20:00,
2013-01-12 22:26:00,69.7,65.0,29.70,SW,215,13.0,17.0,85,0.00,,,0.28,Wunderground v.1.15,2013-01-13 04:26:00,
2013-01-12 22:30:00,69.9,64.8,29.70,SSW,201,10.0,17.0,84,0.00,,,0.28,Wunderground v.1.15,2013-01-13 04:30:00,
2013-01-12 22:35:00,70.0,64.9,29.70,South,184,7.0,20.0,84,0.00,,,0.28,Wunderground v.1.15,2013-01-13 04:35:00,
2013-01-12 22:40:00,70.0,64.9,29.69,SW,231,7.0,14.0,84,0.00,,,0.28,Wunderground v.1.15,2013-01-13 04:40:00,
2013-01-12 22:45:00,70.0,64.9,29.70,South,191,5.0,19.0,84,0.00,,,0.28,Wunderground v.1.15,2013-01-13 04:45:00,
2013-01-12 22:50:00,70.0,64.9,29.70,WSW,240,12.0,12.0,84,0.00,,,0.28,Wunderground v.1.15,2013-01-13 04:50:00,
2013-01-12 22:55:00,70.1,65.0,29.71,NW,308,3.0,18.0,84,0.00,,,0.28,Wunderground v.1.15,2013-01-13 04:55:00,
2013-01-12 23:01:00,70.2,65.1,29.72,WSW,240,7.0,13.0,84,0.00,,,0.28,Wunderground v.1.15,2013-01-13 05:01:00,
2013-01-12 23:03:00,70.2,65.1,29.72,SW,226,8.0,13.0,84,0.00,,,0.28,Wunderground v.1.15,2013-01-13 05:03:00,
2013-01-12 23:08:00,70.2,65.1,29.72,SSW,205,6.0,13.0,84,0.00,,,0.28,Wunderground v.1.15,2013-01-13 05:08:00,
2013-01-12 23:13:00,70.2,65.1,29.72,SW,226,6.0,16.0,84,0.00,,,0.28,Wunderground v.1.15,2013-01-13 05:13:00,
2013-01-12 23:18:00,69.9,65.2,29.72,WSW,239,9.0,16.0,85,0.00,,,0.28,Wunderground v.1.15,2013-01-13 05:18:00,
2013-01-12 23:24:00,69.6,65.2,29.73,NW,311,2.0,11.0,86,0.00,,,0.28,Wunderground v.1.15,2013-01-13 05:24:00,
2013-01-12 23:29:00,69.2,65.2,29.72,SSW,205,3.0,11.0,87,0.00,,,0.29,Wunderground v.1.15,2013-01-13 05:29:00,
2013-01-12 23:34:00,69.1,65.1,29.71,South,172,3.0,11.0,87,0.00,,,0.29,Wunderground v.1.15,2013-01-13 05:34:00,
2013-01-12 23:39:00,69.1,65.1,29.71,SSW,200,4.0,11.0,87,0.00,,,0.29,Wunderground v.1.15,2013-01-13 05:39:00,
2013-01-12 23:44:00,69.1,65.1,29.71,SSW,203,3.0,10.0,87,0.00,,,0.29,Wunderground v.1.15,2013-01-13 05:44:00,
2013-01-12 23:49:00,69.0,65.0,29.71,SSE,148,0.0,10.0,87,0.00,,,0.30,Wunderground v.1.15,2013-01-13 05:49:00,
2013-01-12 23:54:00,67.7,63.7,29.73,NNW,328,3.0,7.0,87,0.00,,,0.30,Wunderground v.1.15,2013-01-13 05:54:00,
2013-01-12 23:59:00,63.0,58.4,29.74,NNW,342,5.0,7.0,85,0.39,,,0.37,Wunderground v.1.15,2013-01-13 05:59:00,